Bowling Green, KY

1:43 PM CDT on May 22, 2017 (GMT -0500)
Bowling Green-Warren County Regional

Weather History for KBWG - March, 2014

Change the Weather History Date:

Wednesday, March 12, 2014

  Actual Average Record
Temperature  
Mean Temperature 49 °F 47 °F  
Max Temperature 64 °F 58 °F 82 °F (1967)
Min Temperature 34 °F 36 °F 13 °F (1998)
Degree Days  
Heating Degree Days 16 18  
Month to date heating degree days 295 236  
Since 1 July heating degree days 3904 3434  
Cooling Degree Days 0 0  
Month to date cooling degree days 0 0  
Year to date cooling degree days 0 0  
Moisture  
Dew Point 40 °F    
Average Humidity 64    
Maximum Humidity 82    
Minimum Humidity 46    
Precipitation  
Precipitation 0.05 in 0.14 in 5.93 in (1975)
Month to date precipitation 2.52 1.62  
Year to date precipitation 9.69 9.19  
Snow  
Snow 0.00 in 0.00 in 3.00 in (2009)
Month to date snowfall 4.8 0.4  
Since 1 July snowfall 10.1 8.2  
Snow Depth 0.00 in    
Sea Level Pressure  
Sea Level Pressure 29.67 in    
Wind  
Wind Speed 13 mph (WNW)    
Max Wind Speed 33 mph    
Max Gust Speed 48 mph    
Visibility 10 miles    
Events Rain    
T = Trace of Precipitation, MM = Missing Value Source: NWS Daily Summary

Daily Weather History Graph

Daily Weather History Graph

Search for Another Location

Airport or City:

Trip Planner

Search our weather history database for the weather conditions in past years. The results will help you decide how hot, cold, wet, or windy it might be!

Date:

Astronomy

Mar. 12, 2014 Rise Set
Actual Time 7:01 AM CDT 6:50 PM CDT
Civil Twilight 6:35 AM CDT 7:16 PM CDT
Nautical Twilight 6:05 AM CDT 7:46 PM CDT
Astronomical Twilight 5:34 AM CDT 8:16 PM CDT
Moon 3:24 PM CDT (3/12) 4:28 AM CDT (3/12)
Length of Visible Light 12h 41m
Length of Day
11h 49m
Waxing Gibbous, 85% of the Moon is Illuminated
Mar 12
Waxing Gibbous
Mar 16
Full
Mar 23
Last Quarter
Mar 30
New
Apr 7
First Quarter

Hourly Weather History & Observations

Time (CDT) Temp. Windchill Dew Point Humidity Pressure Visibility Wind Dir Wind Speed Gust Speed Precip Events Conditions
12:53 AM 63.0 °F - 52.0 °F 67% 29.51 in 10.0 mi SSW 9.2 mph - N/A   Clear
1:53 AM 64.0 °F - 52.0 °F 65% 29.49 in 10.0 mi SSW 8.1 mph - N/A   Mostly Cloudy
2:53 AM 63.0 °F - 54.0 °F 72% 29.47 in 10.0 mi SW 8.1 mph - N/A   Mostly Cloudy
3:27 AM 64.0 °F - 54.0 °F 70% 29.46 in 10.0 mi SSW 13.8 mph - N/A   Overcast
3:53 AM 64.0 °F - 55.9 °F 75% 29.45 in 9.0 mi SW 15.0 mph - 0.00 in Rain Light Rain
4:53 AM 63.0 °F - 55.9 °F 78% 29.44 in 10.0 mi SW 13.8 mph 23.0 mph 0.00 in   Overcast
5:25 AM 62.1 °F - 55.9 °F 80% 29.43 in 10.0 mi SW 13.8 mph - N/A   Scattered Clouds
5:53 AM 62.1 °F - 55.9 °F 80% 29.41 in 10.0 mi SW 15.0 mph - N/A   Scattered Clouds
6:26 AM 62.1 °F - 55.9 °F 80% 29.42 in 10.0 mi SW 16.1 mph - N/A   Overcast
6:53 AM 62.1 °F - 55.9 °F 80% 29.41 in 9.0 mi SW 16.1 mph - 0.00 in Rain Light Rain
7:06 AM 61.0 °F - 57.0 °F 87% 29.41 in 4.0 mi SW 17.3 mph 25.3 mph 0.04 in Rain Rain
7:21 AM 57.9 °F - 54.0 °F 87% 29.45 in 10.0 mi WNW 28.8 mph 48.3 mph 0.05 in Rain Light Rain
7:33 AM 54.0 °F - 50.0 °F 86% 29.47 in 10.0 mi WNW 21.9 mph 34.5 mph 0.05 in   Overcast
7:46 AM 50.0 °F - 46.0 °F 86% 29.50 in 9.0 mi NW 17.3 mph 29.9 mph 0.05 in   Overcast
7:53 AM 48.0 °F - 44.1 °F 86% 29.51 in 8.0 mi NW 18.4 mph 29.9 mph 0.05 in   Overcast
8:02 AM 46.9 °F - 43.0 °F 86% 29.53 in 10.0 mi NW 19.6 mph 31.1 mph N/A   Overcast
8:12 AM 46.0 °F 38.3 °F 41.0 °F 83% 29.54 in 10.0 mi WNW 20.7 mph 32.2 mph N/A   Overcast
8:20 AM 44.1 °F 35.4 °F 39.0 °F 82% 29.56 in 10.0 mi WNW 21.9 mph 32.2 mph N/A   Overcast
8:27 AM 44.1 °F 35.7 °F 39.0 °F 82% 29.57 in 10.0 mi WNW 20.7 mph 35.7 mph N/A   Overcast
8:53 AM 42.1 °F 33.6 °F 37.9 °F 85% 29.60 in 10.0 mi WNW 18.4 mph 33.4 mph N/A   Overcast
9:53 AM 41.0 °F 31.6 °F 35.1 °F 79% 29.66 in 10.0 mi NW 20.7 mph 27.6 mph N/A   Overcast
10:04 AM 41.0 °F 31.9 °F 35.1 °F 79% 29.67 in 10.0 mi WNW 19.6 mph 31.1 mph N/A   Overcast
10:21 AM 41.0 °F 32.5 °F 35.1 °F 79% 29.69 in 10.0 mi NW 17.3 mph 31.1 mph N/A   Overcast
10:38 AM 42.1 °F 34.5 °F 34.0 °F 73% 29.70 in 10.0 mi NW 15.0 mph 31.1 mph N/A   Overcast
10:53 AM 41.0 °F 32.5 °F 34.0 °F 76% 29.71 in 10.0 mi WNW 17.3 mph 27.6 mph 0.00 in Rain Light Rain
11:53 AM 41.0 °F 33.9 °F 33.1 °F 73% 29.77 in 10.0 mi WNW 12.7 mph 27.6 mph 0.00 in   Overcast
12:53 PM 41.0 °F 32.8 °F 32.0 °F 70% 29.81 in 10.0 mi WNW 16.1 mph 27.6 mph N/A   Overcast
1:53 PM 39.9 °F 31.4 °F 30.9 °F 70% 29.83 in 10.0 mi NW 16.1 mph 27.6 mph N/A   Overcast
2:53 PM 42.1 °F 33.9 °F 28.9 °F 60% 29.87 in 10.0 mi NW 17.3 mph 28.8 mph N/A   Overcast
3:53 PM 41.0 °F 32.8 °F 27.0 °F 57% 29.91 in 10.0 mi NW 16.1 mph 27.6 mph N/A   Mostly Cloudy
4:53 PM 41.0 °F 33.1 °F 25.0 °F 53% 29.95 in 10.0 mi NW 15.0 mph 19.6 mph N/A   Overcast
5:53 PM 41.0 °F 34.3 °F 23.0 °F 49% 29.97 in 10.0 mi NW 11.5 mph 23.0 mph N/A   Mostly Cloudy
6:53 PM 39.9 °F 35.1 °F 23.0 °F 51% 30.00 in 10.0 mi NW 6.9 mph - N/A   Mostly Cloudy
7:53 PM 37.9 °F 31.5 °F 24.1 °F 57% 30.04 in 10.0 mi WNW 9.2 mph 17.3 mph N/A   Overcast
8:53 PM 37.0 °F 29.8 °F 26.1 °F 65% 30.07 in 10.0 mi West 10.4 mph - N/A   Overcast
9:53 PM 36.0 °F 29.0 °F 24.1 °F 62% 30.08 in 10.0 mi NNW 9.2 mph - N/A   Mostly Cloudy
10:53 PM 35.1 °F 31.0 °F 25.0 °F 67% 30.10 in 10.0 mi NW 4.6 mph - N/A   Overcast
11:53 PM 35.1 °F 29.3 °F 25.0 °F 67% 30.10 in 10.0 mi NW 6.9 mph - N/A   Overcast